Вернуться в каталог

HONGKOU FUXING

АктивенНаукаSSO
NORAD 57426·PAYLOAD·🇨🇳 China
Это название спутника еще не подтверждено официальными источниками.

Запущен Jul 23, 2023 с Taiyuan Satellite Launch Center

Loading…

Ближайшие Пролёты (ближайшие 24 часа)

TLE

СвежийSource: Space-Track

Эпоха: Sep 14, 2026, 14:36 UTC

1 57426U 23104C   26257.60876278  .00008085  00000-0  31781-3 0  9994
2 57426  97.2529 319.2362 0016951  87.0737 273.2441 15.25795539175445

Отслеживайте HONGKOU FUXING в реальном времени с AllMySat

Download on the App Store